Pikeville, NC

1:16 AM EST on February 20, 2017 (GMT -0500)
Goldsboro-Wayne Municipal

Weather History for KGWW - August, 2013

Change the Weather History Date:

Friday, August 9, 2013

  Actual Average (KGSB) Record (KGSB)
Temperature  
Mean Temperature 83 °F -  
Max Temperature 92 °F 87 °F 104 °F (2007)
Min Temperature 74 °F 68 °F 57 °F (2004)
Cooling Degree Days 18    
Growing Degree Days 33 (Base 50)    
Moisture  
Dew Point 74 °F    
Average Humidity 77    
Maximum Humidity 100    
Minimum Humidity 49    
Precipitation  
Precipitation 0.00 in - - ()
Sea Level Pressure  
Sea Level Pressure 30.04 in    
Wind  
Wind Speed 7 mph (SSW)    
Max Wind Speed 14 mph    
Max Gust Speed 20 mph    
Visibility 9 miles    
Events      
Averages and records for this station are not official NWS values.
T = Trace of Precipitation, MM = Missing Value Source: NWS Daily Summary

Daily Weather History Graph

Daily Weather History Graph

Search for Another Location

Airport or City:

Trip Planner

Search our weather history database for the weather conditions in past years. The results will help you decide how hot, cold, wet, or windy it might be!

Date:

Astronomy

Aug. 09, 2013 Rise Set
Actual Time 6:26 AM EDT 8:07 PM EDT
Civil Twilight 5:59 AM EDT 8:34 PM EDT
Nautical Twilight 5:26 AM EDT 9:07 PM EDT
Astronomical Twilight 4:51 AM EDT 9:42 PM EDT
Moon 9:02 AM EDT (8/9) 9:25 PM EDT (8/9)
Length of Visible Light 14h 35m
Length of Day
13h 40m
Waxing Crescent, 7% of the Moon is Illuminated
Aug 9
Waxing Crescent
Aug 14
First Quarter
Aug 20
Full
Aug 28
Last Quarter
Sep 5
New

Hourly Weather History & Observations

Time (EDT) Temp. Heat Index Dew Point Humidity Pressure Visibility Wind Dir Wind Speed Gust Speed Precip Events Conditions
12:15 AM 76.6 °F - 74.3 °F 92% 30.05 in 10.0 mi SSE 4.6 mph - N/A   Clear
12:35 AM 76.6 °F - 74.7 °F 94% 30.05 in 10.0 mi South 4.6 mph - N/A   Clear
12:55 AM 76.3 °F - 74.7 °F 95% 30.05 in 10.0 mi South 3.5 mph - N/A   Clear
1:15 AM 76.1 °F - 74.8 °F 96% 30.05 in 10.0 mi SSE 3.5 mph - N/A   Clear
1:35 AM 75.7 °F - 75.0 °F 98% 30.04 in 10.0 mi South 3.5 mph - N/A   Clear
1:55 AM 75.6 °F - 74.8 °F 98% 30.04 in 10.0 mi South 4.6 mph - N/A   Clear
2:15 AM 75.6 °F - 75.2 °F 99% 30.04 in 10.0 mi South 5.8 mph - N/A   Clear
2:35 AM 75.6 °F - 75.2 °F 99% 30.03 in 10.0 mi SSW 5.8 mph - N/A   Clear
2:55 AM 75.6 °F - 75.2 °F 99% 30.03 in 10.0 mi SSW 5.8 mph - N/A   Clear
3:15 AM 75.7 °F - 75.2 °F 98% 30.03 in 10.0 mi South 6.9 mph - N/A   Clear
3:35 AM 75.7 °F - 75.4 °F 99% 30.03 in 10.0 mi SSW 6.9 mph - N/A   Clear
3:55 AM 75.6 °F - 75.4 °F 99% 30.03 in 7.0 mi SSW 5.8 mph - N/A   Clear
4:15 AM 75.6 °F - 75.4 °F 99% 30.03 in 7.0 mi SSW 5.8 mph - N/A   Clear
4:35 AM 75.4 °F - 75.4 °F 100% 30.04 in 7.0 mi SSW 4.6 mph - N/A   Clear
4:55 AM 75.2 °F - 75.2 °F 100% 30.04 in 7.0 mi SSW 5.8 mph - N/A   Scattered Clouds
5:15 AM 75.2 °F - 75.2 °F 100% 30.04 in 7.0 mi SSW 5.8 mph - N/A   Scattered Clouds
5:35 AM 75.0 °F - 75.0 °F 100% 30.05 in 7.0 mi SSW 5.8 mph - N/A   Clear
5:55 AM 74.7 °F - 74.7 °F 100% 30.05 in 7.0 mi SSW 4.6 mph - N/A   Clear
6:15 AM 74.8 °F - 74.8 °F 100% 30.06 in 7.0 mi SSW 4.6 mph - N/A   Clear
6:35 AM 75.0 °F - 75.0 °F 100% 30.06 in 7.0 mi SSW 5.8 mph - N/A   Mostly Cloudy
6:55 AM 75.2 °F - 75.2 °F 100% 30.07 in 5.0 mi SW 6.9 mph - N/A   Overcast
7:15 AM 75.6 °F - 75.6 °F 100% 30.07 in 5.0 mi SW 6.9 mph - N/A   Overcast
7:35 AM 76.1 °F - 76.1 °F 100% 30.06 in 5.0 mi SW 8.1 mph - N/A   Overcast
7:55 AM 77.0 °F - 76.5 °F 98% 30.06 in 5.0 mi SSW 5.8 mph - N/A   Mostly Cloudy
8:15 AM 77.9 °F - 76.6 °F 96% 30.07 in 7.0 mi SSW 6.9 mph - N/A   Mostly Cloudy
8:35 AM 78.4 °F - 76.6 °F 94% 30.07 in 7.0 mi SW 9.2 mph - N/A   Mostly Cloudy
8:55 AM 79.0 °F - 76.3 °F 91% 30.07 in 10.0 mi SW 8.1 mph 16.1 mph N/A   Overcast
9:15 AM 80.1 °F 85.7 °F 76.5 °F 89% 30.06 in 10.0 mi SW 11.5 mph - N/A   Overcast
9:35 AM 80.8 °F 87.2 °F 76.6 °F 87% 30.06 in 10.0 mi SW 9.2 mph - N/A   Mostly Cloudy
9:55 AM 82.8 °F 91.0 °F 76.3 °F 81% 30.06 in 10.0 mi WSW 9.2 mph - N/A   Scattered Clouds
10:15 AM 84.4 °F 93.1 °F 75.7 °F 75% 30.07 in 10.0 mi SW 12.7 mph 16.1 mph N/A   Scattered Clouds
10:35 AM 84.6 °F 93.2 °F 75.4 °F 74% 30.07 in 10.0 mi SW 10.4 mph - N/A   Scattered Clouds
10:55 AM 85.3 °F 94.2 °F 75.4 °F 72% 30.08 in 10.0 mi SSW 11.5 mph - N/A   Mostly Cloudy
11:15 AM 86.0 °F 94.6 °F 74.8 °F 69% 30.08 in 10.0 mi SW 12.7 mph 16.1 mph N/A   Mostly Cloudy
11:35 AM 86.4 °F 94.6 °F 74.1 °F 67% 30.08 in 10.0 mi SW 12.7 mph 17.3 mph N/A   Scattered Clouds
11:55 AM 85.8 °F 93.4 °F 73.6 °F 67% 30.08 in 10.0 mi SW 12.7 mph - N/A   Scattered Clouds
12:15 PM 88.0 °F 96.0 °F 73.6 °F 62% 30.08 in 10.0 mi SW 13.8 mph - N/A   Scattered Clouds
12:35 PM 87.3 °F 95.3 °F 73.8 °F 64% 30.07 in 10.0 mi WSW 12.7 mph 19.6 mph N/A   Mostly Cloudy
12:55 PM 90.0 °F 99.0 °F 73.9 °F 59% 30.07 in 10.0 mi SW 10.4 mph - N/A   Scattered Clouds
1:15 PM 89.1 °F 96.5 °F 72.7 °F 58% 30.06 in 10.0 mi SW 10.4 mph 18.4 mph N/A   Scattered Clouds
1:35 PM 90.3 °F 98.7 °F 73.2 °F 57% 30.06 in 10.0 mi SW 10.4 mph - N/A   Scattered Clouds
1:55 PM 89.4 °F 97.3 °F 72.9 °F 58% 30.05 in 10.0 mi SW 10.4 mph 16.1 mph N/A   Scattered Clouds
2:15 PM 90.5 °F 98.1 °F 72.3 °F 55% 30.05 in 10.0 mi West 13.8 mph 18.4 mph N/A   Scattered Clouds
2:35 PM 91.6 °F 99.3 °F 72.1 °F 53% 30.04 in 10.0 mi SW 10.4 mph - N/A   Scattered Clouds
2:55 PM 91.6 °F 98.8 °F 71.6 °F 52% 30.04 in 10.0 mi SW 9.2 mph - N/A   Mostly Cloudy
3:15 PM 91.9 °F 99.5 °F 72.1 °F 52% 30.04 in 10.0 mi SW 11.5 mph 18.4 mph N/A   Scattered Clouds
3:35 PM 91.6 °F 99.3 °F 72.1 °F 53% 30.03 in 10.0 mi WSW 11.5 mph - N/A   Scattered Clouds
3:55 PM 91.6 °F 99.3 °F 72.1 °F 53% 30.02 in 10.0 mi SW 10.4 mph 16.1 mph N/A   Scattered Clouds
4:15 PM 91.9 °F 99.5 °F 72.0 °F 52% 30.01 in 10.0 mi SW 11.5 mph 16.1 mph N/A   Mostly Cloudy
4:35 PM 92.3 °F 99.7 °F 72.0 °F 51% 30.01 in 10.0 mi SSW 10.4 mph 17.3 mph N/A   Scattered Clouds
4:55 PM 92.8 °F 100.3 °F 72.0 °F 50% 30.00 in 10.0 mi WSW 13.8 mph 17.3 mph N/A   Scattered Clouds
5:15 PM 90.9 °F 96.7 °F 70.5 °F 51% 30.00 in 10.0 mi SSW 9.2 mph 16.1 mph N/A   Scattered Clouds
5:35 PM 92.3 °F 98.6 °F 70.3 °F 49% 30.00 in 10.0 mi SW 12.7 mph 17.3 mph N/A   Mostly Cloudy
5:55 PM 90.5 °F 96.5 °F 70.5 °F 52% 30.00 in 10.0 mi SW 12.7 mph 17.3 mph N/A   Scattered Clouds
6:15 PM 91.8 °F 98.6 °F 71.2 °F 51% 30.00 in 10.0 mi SW 9.2 mph - N/A   Scattered Clouds
6:35 PM 90.7 °F 96.9 °F 70.7 °F 52% 30.00 in 10.0 mi SW 10.4 mph - N/A   Scattered Clouds
6:55 PM 89.6 °F 95.7 °F 70.9 °F 54% 30.00 in 10.0 mi SSW 9.2 mph - N/A   Clear
7:15 PM 88.3 °F 94.1 °F 70.7 °F 56% 30.00 in 10.0 mi SW 9.2 mph - N/A   Clear
7:35 PM 86.2 °F 91.4 °F 70.9 °F 60% 30.01 in 10.0 mi SSW 8.1 mph - N/A   Clear
7:55 PM 85.3 °F 90.8 °F 71.6 °F 63% 30.01 in 10.0 mi SSW 6.9 mph - N/A   Clear
8:15 PM 85.1 °F 90.8 °F 71.8 °F 64% 30.01 in 10.0 mi South 5.8 mph - N/A   Clear
8:35 PM 84.2 °F 89.9 °F 72.3 °F 67% 30.02 in 10.0 mi SSW 6.9 mph - N/A   Clear
8:55 PM 84.2 °F 90.9 °F 73.4 °F 70% 30.02 in 10.0 mi SSW 6.9 mph - N/A   Clear
9:15 PM 83.7 °F 90.4 °F 73.8 °F 72% 30.03 in 10.0 mi SSW 9.2 mph - N/A   Clear
9:35 PM 83.3 °F 90.2 °F 74.3 °F 74% 30.04 in 10.0 mi SSW 8.1 mph - N/A   Clear
9:55 PM 82.8 °F 89.5 °F 74.5 °F 76% 30.05 in 10.0 mi SSW 11.5 mph - N/A   Clear
10:15 PM 82.4 °F 89.2 °F 74.8 °F 78% 30.05 in 10.0 mi SSW 13.8 mph 17.3 mph N/A   Clear
10:35 PM 81.9 °F 88.2 °F 74.8 °F 79% 30.05 in 10.0 mi SSW 9.2 mph 17.3 mph N/A   Clear
10:55 PM 81.5 °F 87.6 °F 74.8 °F 80% 30.05 in 10.0 mi SSW 10.4 mph 18.4 mph N/A   Clear
11:15 PM 80.8 °F 86.3 °F 74.8 °F 82% 30.06 in 10.0 mi SSW 10.4 mph - N/A   Clear
11:35 PM 80.2 °F 85.2 °F 74.5 °F 83% 30.07 in 10.0 mi SSW 8.1 mph - N/A   Clear
11:55 PM 79.7 °F - 74.3 °F 83% 30.07 in 10.0 mi SSW 8.1 mph - N/A   Clear